This demonstration page uses our WeatherBlox Daily Observations layout. Learn more.

Left ArrowRight Arrow

47.50024, -111.30081

Hourly Observations for January 8, 2018

Temp ( °F °C ) Dew Point ( °F °C ) Humidity (%) Winds ( mph kmh ) Pressure ( in mb ) Visibility ( mi km ) Precip ( " mm )
12:53 am 00:53 Clear 41 5 27 -2.8 57 57 SW 24 39 29.91 1013 10 16 0.00 0.00
1:53 am 01:53 Clear 41 5 26 -3.3 55 55 SW 20 31 29.89 1012 10 16 0.00 0.00
2:53 am 02:53 Clear 41 5 26 -3.3 55 55 SW 20 31 29.92 1013 10 16 0.00 0.00
3:53 am 03:53 Mostly Cloudy 40 4.4 25 -3.9 55 55 SW 14 22 29.91 1013 10 16 0.00 0.00
4:53 am 04:53 Clear 38 3.3 26 -3.3 62 62 SSW 16 26 29.90 1013 10 16 0.00 0.00
5:53 am 05:53 Mostly Clear 38 3.3 27 -2.8 65 65 SSW 16 26 29.91 1013 10 16 0.00 0.00
6:53 am 06:53 Mostly Clear 39 3.9 26 -3.3 60 60 SSW 20 31 29.89 1012 10 16 0.00 0.00
7:53 am 07:53 Clear 40 4.4 25 -3.9 55 55 SW 20 31 29.88 1012 10 16 0.00 0.00
8:53 am 08:53 Partly Cloudy 39 3.9 25 -3.9 57 57 SW 21 33 29.87 1012 10 16 0.00 0.00
9:53 am 09:53 Cloudy 41 5 25 -3.9 53 53 SW 24 39 29.87 1012 10 16 0.00 0.00
10:53 am 10:53 Cloudy 40 4.4 26 -3.3 58 58 SSW 16 26 29.88 1012 10 16 0.00 0.00
11:53 am 11:53 Cloudy 42 5.6 25 -3.9 51 51 SSW 16 26 29.85 1011 10 16 0.00 0.00
12:53 pm 12:53 Cloudy 44 6.7 26 -3.3 49 49 SSW 17 28 29.80 1009 10 16 0.00 0.00
1:53 pm 13:53 Mostly Cloudy 45 7.2 27 -2.8 49 49 SSW 13 20 29.79 1009 10 16 0.00 0.00
2:53 pm 14:53 Mostly Sunny 44 6.7 24 -4.4 45 45 SW 20 31 29.78 1008 10 16 0.00 0.00
3:53 pm 15:53 Sunny 45 7.2 24 -4.4 44 44 SSW 18 30 29.78 1008 10 16 0.00 0.00
4:53 pm 16:53 Clear 40 4.4 25 -3.9 55 55 SSW 10 17 29.80 1009 10 16 0.00 0.00
5:53 pm 17:53 Clear 42 5.6 25 -3.9 51 51 SSW 15 24 29.82 1010 10 16 0.00 0.00
6:53 pm 18:53 Clear 39 3.9 26 -3.3 60 60 S 15 24 29.83 1010 10 16 0.00 0.00
7:53 pm 19:53 Clear 39 3.9 25 -3.9 57 57 SSW 9 15 29.81 1010 10 16 0.00 0.00
8:53 pm 20:53 Clear 39 3.9 26 -3.3 60 60 S 9 15 29.79 1009 10 16 0.00 0.00
9:53 pm 21:53 Clear 40 4.4 26 -3.3 58 58 S 14 22 29.76 1008 10 16 0.00 0.00
10:53 pm 22:53 Clear 39 3.9 24 -4.4 55 55 SW 8 13 29.76 1008 10 16 0.00 0.00
11:53 pm 23:53 Clear 41 5 24 -4.4 51 51 S 7 11 29.75 1007 10 16 0.00 0.00

Powered by AerisWeather